カタログに戻る

STARLINK-32362

運用中通信VLEO
NORAD 61845·PAYLOAD·🇺🇸 United States

打ち上げ Nov 7, 2024 から Cape Canaveral Space Force Station

Loading…

次のパス (今後24時間)

TLE

最新Source: CelesTrak SupGP

元期: Sep 15, 2026, 02:59 UTC

1 61845C 24202A   26258.12479167 -.00036644  00000+0 -13271-2 0  2582
2 61845  43.0000 236.9332 0001266 268.8503 287.7812 15.27599166    15

AllMySatでSTARLINK-32362をリアルタイム追跡

Download on the App Store